522  
ASPQ40 PGUM 180110  
RWRPQ  
WEATHER ROUNDUP FOR THE MARIANAS AND MICRONESIA  
NATIONAL WEATHER SERVICE TIYAN GU  
1100 AM CHST SUN APR 18 2021  
 
GUZ001>004-180200-  
MARIANA ISLANDS-  
 
CITY SKY/WX TMP DP RH WIND PRES REMARKS
 
GUAM AIRPORT CLOUDY 86 72 62 E3 29.89F HX 92  
ANDERSEN AFB PTSUNNY 84 75 74 E6 29.89F HX 92  
ROTA AIRPORT MOSUNNY 84 73 70 E13 29.85F HX 91  
TINIAN AP MOSUNNY 88 73 62 NE9 29.87F HX 96  
SAIPAN AP SUNNY 90 73 58 NE9 29.88F HX 98  
 

 
 
PMZ161-180200-  
REPUBLIC OF PALAU-  
 
CITY SKY/WX TMP DP RH WIND PRES REMARKS
 
KOROR AP CLOUDY 82 75 78 W16G22 29.85R  
KOROR WSO NOT AVBL  
 

 
 
PMZ171>174-180200-  
FEDERATED STATES OF MICRONESIA-  
 
CITY SKY/WX TMP DP RH WIND PRES REMARKS
 
YAP AIRPORT PTSUNNY 84 79 84 N8 29.85F HX 96  
CHUUK AP PTSUNNY 88 81 79 E10G16 29.79 HX 105  
POHNPEI AP NOT AVBL  
POHNPEI WSO CLOUDY 84 79 84 NE3 29.81F HX 96  
KOSRAE AP NOT AVBL  
 

 
 
PMZ181-180200-  
REPUBLIC OF THE MARSHALL ISLANDS-  
 
CITY SKY/WX TMP DP RH WIND PRES REMARKS
 
KWAJALEIN AP SUNNY 86 75 70 SE10 29.77F HX 95  
MAJURO AP NOT AVBL  
MAJURO WSO PTSUNNY 86 73 66 SE5 29.75F HX 93  
 

 
 
 
 
CLICK HERE TO GO TO PREVIOUS BULLETINS.

The Nexlab GU Page Main Text Page